This is the latest recevied weather packets stored in our database for station/object KQ4WWD. If no packets are shown the sender has not sent any weather packets the latest 10 day(s).
| Time | Temp. | Humidity | Pressure | Rain* | Wind** | Luminosity | Snow |
|---|---|---|---|---|---|---|---|
| 1787877823 | 26.67° C | 85% | 1015.4 hPa | 0 mm | - | 0 W/m² | - |
| 1787877518 | 26.67° C | 85% | 1015.4 hPa | 0 mm | - | 0 W/m² | - |
| 1787877214 | 26.67° C | 85% | 1015.1 hPa | 0 mm | - | 0 W/m² | - |
| 1787876913 | 26.67° C | 85% | 1015.1 hPa | 0 mm | - | 0 W/m² | - |
| 1787876609 | 26.67° C | 85% | 1014.8 hPa | 0 mm | - | 0 W/m² | - |
| 1787876309 | 27.22° C | 85% | 1015.1 hPa | 0 mm | - | 0 W/m² | - |
| 1787876007 | 27.22° C | 85% | 1015 hPa | 0 mm | - | 0 W/m² | - |
| 1787875703 | 27.22° C | 85% | 1015 hPa | 0 mm | - | 0 W/m² | - |
| 1787875401 | 27.78° C | 84% | 1014.8 hPa | 0 mm | - | 0 W/m² | - |
| 1787875101 | 27.78° C | 83% | 1015.1 hPa | 0 mm | - | 0 W/m² | - |
| 1787874796 | 27.78° C | 81% | 1015.3 hPa | 0 mm | - | 0 W/m² | - |
| 1787874494 | 28.33° C | 81% | 1015.1 hPa | 0 mm | - | 3 W/m² | - |
| 1787874189 | 28.33° C | 81% | 1015 hPa | 0 mm | - | 6 W/m² | - |
| 1787873884 | 27.78° C | 81% | 1015.1 hPa | 0 mm | - | 10 W/m² | - |
| 1787873583 | 27.78° C | 82% | 1015.1 hPa | 0 mm | - | 16 W/m² | - |
| 1787873279 | 28.33° C | 81% | 1015 hPa | 0 mm | - | 23 W/m² | - |
| 1787872977 | 28.33° C | 81% | 1015.2 hPa | 0 mm | - | 31 W/m² | - |
| 1787872676 | 28.33° C | 81% | 1015.2 hPa | 0 mm | - | 34 W/m² | - |
| 1787872369 | 28.89° C | 80% | 1015.1 hPa | 0 mm | - | 38 W/m² | - |
| 1787872069 | 28.89° C | 79% | 1015.1 hPa | 0 mm | - | 41 W/m² | - |
| 1787871763 | 29.44° C | 77% | 1015.2 hPa | 0 mm | - | 47 W/m² | - |
| 1787871459 | 28.89° C | 78% | 1015.4 hPa | 0 mm | - | 52 W/m² | - |
| 1787871153 | 28.89° C | 78% | 1015.1 hPa | 0 mm | - | 67 W/m² | - |
| 1787870854 | 28.89° C | 77% | 1015.4 hPa | 0 mm | - | 63 W/m² | - |
| 1787870549 | 28.89° C | 76% | 1015 hPa | 0 mm | - | 71 W/m² | - |
* Rain latest hour (hover to see other rain measurements)
** Current wind speed in m/s (hover to see current wind gust speed)